Home   Weather   Nashville   Past weeks

Flag for USA Past Weather in Nashville, Tennessee, USA — Yesterday and Last 2 Weeks

Now
59 °F

High level clouds.


Feels Like: 59 °F
Forecast: 56 / 67 °F
Wind: 5 mph from South

Location: Nashville International Airport

Current Time: Jan 21, 2017 at 2:41:20 am

Latest Report: Jan 21, 2017 at 1:53 am


Visibility: 10 mi

Pressure: 29.75 "Hg

Humidity: 78%

Dew Point: 52 °F

Location of NashvilleLocation

Past Weather in Nashville — Graph

°F

Nashville Temperature Yesterday

Maximum temperature yesterday: 69 °F (at 1:53 pm)
Minimum temperature yesterday: 54 °F (at 2:31 am)
Average temperature yesterday: 60 °F

High & Low Weather Summary for the Past Weeks

 TemperatureHumidityPressure
High72 °F (Jan 16, 12:53 pm)97% (Jan 11, 5:09 am)30.82 "Hg (Jan 11, 5:09 am)
Low8 °F (Jan 8, 4:53 am)28% (Jan 9, 12:53 pm)29.68 "Hg (Jan 19, 10:53 pm)
Average48 °F75%30.23 "Hg
* Reported Jan 6 12:33 am — Jan 21 12:53 am, Nashville, Weather by CustomWeather, © 2017

Note: Actual official high and low records may vary slightly from our data, if they occured in-between our weather recording intervals... More about our weather records

Advertising

Nashville Weather History for the Previous 24 Hours

Scroll right to see more
 ConditionsComfort  
Time TempWeatherWind HumidityBarometerVisibility
12:53 am
Sat, Jan 21
57 °FHigh level clouds.7 mph83%29.75 "Hg10 mi
11:53 pm
Fri, Jan 20
58 °FHigh level clouds.8 mph81%29.75 "Hg10 mi
10:53 pm59 °FHigh level clouds.9 mph78%29.75 "Hg10 mi
9:53 pm59 °FOvercast.7 mph75%29.75 "Hg10 mi
8:53 pm59 °FPassing clouds.6 mph75%29.75 "Hg10 mi
7:53 pm60 °FPassing clouds.5 mph72%29.75 "Hg10 mi
6:53 pm62 °FPassing clouds.8 mph67%29.74 "Hg10 mi
5:53 pm61 °FPassing clouds.6 mph70%29.73 "Hg10 mi
4:53 pm64 °FPassing clouds.9 mph63%29.72 "Hg10 mi
3:53 pm68 °FPartly sunny.14 mph57%29.72 "Hg10 mi
2:53 pm67 °FBroken clouds.14 mph57%29.72 "Hg10 mi
1:53 pm69 °FBroken clouds.16 mph55%29.71 "Hg10 mi
12:53 pm66 °FBroken clouds.10 mph63%29.73 "Hg10 mi
11:53 am66 °FBroken clouds.10 mph63%29.77 "Hg10 mi
10:53 am63 °FBroken clouds.9 mph73%29.81 "Hg10 mi
9:53 am61 °FBroken clouds.7 mph75%29.81 "Hg10 mi
8:53 am59 °FScattered clouds.9 mph84%29.79 "Hg10 mi
7:53 am55 °FPartly sunny.8 mph93%29.78 "Hg10 mi
6:53 am56 °FPartly sunny.9 mph90%29.76 "Hg10 mi
6:19 am55 °FBroken clouds.7 mph90%29.76 "Hg10 mi
5:53 am56 °FOvercast.3 mph90%29.76 "Hg10 mi
4:53 am56 °FOvercast.8 mph87%29.74 "Hg10 mi
4:40 am57 °FOvercast.8 mph83%29.74 "Hg10 mi
3:53 am57 °FLow clouds.7 mph90%29.72 "Hg10 mi
2:53 am56 °FPassing clouds.7 mph90%29.71 "Hg10 mi
2:31 am54 °FPartly cloudy.6 mph97%29.72 "Hg10 mi
Weather by CustomWeather, © 2017

See weather overviewHow to use our weather pages